Weather History for Fort Leonard Wood, MO

Change the Weather History Date:

Saturday, February 8, 2014

  Actual Average Record
Temperature  
Mean Temperature 26 °F -  
Max Temperature 32 °F 44 °F 68 °F (1999)
Min Temperature 19 °F 29 °F 10 °F (2011)
Degree Days  
Heating Degree Days 40    
Moisture  
Dew Point 20 °F    
Average Humidity 81    
Maximum Humidity 100    
Minimum Humidity 61    
Precipitation  
Precipitation 0.00 in - - ()
Sea Level Pressure  
Sea Level Pressure 30.18 in    
Wind  
Wind Speed 4 mph (SSW)    
Max Wind Speed 7 mph    
Max Gust Speed -    
Visibility 10 miles    
Events      
Averages and records for this station are not official NWS values.
T = Trace of Precipitation, MM = Missing Value Source: NWS Daily Summary

Daily Weather History Graph

Daily Weather History Graph

Search for Another Location

Airport:

Trip Planner

Search our weather history database for the weather conditions in past years. The results will help you decide how hot, cold, wet, or windy it might be!

Date:

Astronomy

Feb. 08, 2014 Rise Set
Actual Time 7:05 AM CST 5:40 PM CST
Civil Twilight 6:38 AM CST 6:07 PM CST
Nautical Twilight 6:07 AM CST 6:38 PM CST
Astronomical Twilight 5:37 AM CST 7:08 PM CST
Moon 12:36 PM CST (2/8) 2:17 AM CST (2/8)
Length of Visible Light 11h 28m
Length of Day
10h 34m
Waxing Gibbous, 69% of the Moon is Illuminated
Feb 8
Waxing Gibbous
Feb 14
Full
Feb 22
Last Quarter
Mar 1
New
Mar 8
First Quarter

Hourly Weather History & Observations

Time (CST) Temp. Windchill Dew Point Humidity Pressure Visibility Wind Dir Wind Speed Gust Speed Precip Events Conditions
12:58 AM 19.4 °F 11.5 °F 8.1 °F 61% 30.26 in 10.0 mi South 5.8 mph - N/A   Overcast
1:58 AM 19.4 °F 11.5 °F 8.2 °F 62% 30.27 in 10.0 mi South 5.8 mph - N/A   Overcast
2:58 AM 19.6 °F 14.5 °F 9.0 °F 63% 30.19 in 10.0 mi South 3.5 mph - N/A   Overcast
3:58 AM 19.6 °F 13.0 °F 9.7 °F 65% 30.25 in 10.0 mi South 4.6 mph - N/A   Overcast
4:43 AM 19.4 °F 11.5 °F 10.4 °F 68% 30.17 in 10.0 mi SSE 5.8 mph - N/A   Overcast
4:58 AM 19.6 °F 13.0 °F 10.2 °F 67% 30.25 in 10.0 mi Variable 4.6 mph - N/A   Overcast
5:13 AM 19.4 °F 11.5 °F 10.4 °F 68% 30.17 in 10.0 mi South 5.8 mph - N/A   Overcast
5:58 AM 19.8 °F 13.2 °F 11.3 °F 70% 30.23 in 10.0 mi South 4.6 mph - N/A   Overcast
6:08 AM 19.4 °F 14.3 °F 12.2 °F 74% 30.17 in 10.0 mi SSW 3.5 mph - N/A   Overcast
6:58 AM 19.9 °F 12.1 °F 13.3 °F 75% 30.22 in 10.0 mi South 5.8 mph - N/A   Overcast
7:58 AM 21.2 °F 14.9 °F 15.8 °F 80% 30.24 in 10.0 mi South 4.6 mph - N/A   Overcast
8:08 AM 21.2 °F 16.4 °F 15.8 °F 80% 30.17 in 10.0 mi SSW 3.5 mph - N/A   Overcast
8:23 AM 21.2 °F - 15.8 °F 80% 30.18 in 10.0 mi Variable 2.3 mph - N/A   Overcast
8:58 AM 22.1 °F 17.4 °F 17.2 °F 82% 30.24 in 10.0 mi Variable 3.5 mph - N/A   Overcast
9:58 AM 24.4 °F 18.6 °F 20.8 °F 86% 30.22 in 10.0 mi South 4.6 mph - N/A   Overcast
10:58 AM 26.8 °F 21.4 °F 21.9 °F 82% 30.21 in 10.0 mi Variable 4.6 mph - N/A   Overcast
11:28 AM 28.4 °F 22.2 °F 23.0 °F 80% 30.15 in 10.0 mi South 5.8 mph - N/A   Overcast
11:43 AM 28.4 °F 24.6 °F 23.0 °F 80% 30.14 in 10.0 mi Variable 3.5 mph - N/A   Overcast
11:58 AM 28.9 °F 23.9 °F 23.5 °F 80% 30.19 in 10.0 mi Variable 4.6 mph - N/A   Overcast
12:58 PM 30.2 °F 25.4 °F 24.6 °F 80% 30.17 in 10.0 mi Variable 4.6 mph - N/A   Overcast
1:58 PM 31.3 °F 27.9 °F 24.8 °F 77% 30.14 in 10.0 mi Variable 3.5 mph - N/A   Overcast
2:58 PM 31.3 °F 24.7 °F 26.4 °F 82% 30.15 in 10.0 mi SW 6.9 mph - N/A   Overcast
3:58 PM 31.6 °F 28.3 °F 27.3 °F 84% 30.13 in 10.0 mi Variable 3.5 mph - N/A   Overcast
4:58 PM 32.0 °F 27.5 °F 27.9 °F 85% 30.11 in 10.0 mi Variable 4.6 mph - N/A   Overcast
5:58 PM 30.9 °F - 28.4 °F 90% 30.12 in 10.0 mi SSW 2.3 mph - N/A   Overcast
6:58 PM 30.7 °F - 28.9 °F 93% 30.13 in 10.0 mi WNW 2.3 mph - N/A   Overcast
7:58 PM 30.2 °F - 30.0 °F 99% 30.13 in 10.0 mi NW 1.2 mph - N/A   Overcast
8:58 PM 30.0 °F - 29.7 °F 99% 30.14 in 10.0 mi Calm Calm - N/A   Overcast
9:58 PM 29.7 °F 26.1 °F 29.5 °F 99% 30.15 in 10.0 mi North 3.5 mph - N/A   Overcast
10:58 PM 28.9 °F - 28.9 °F 100% 30.16 in 10.0 mi NW 2.3 mph - N/A   Overcast
11:43 PM 28.4 °F - 28.4 °F 100% 30.11 in 10.0 mi NNW 2.3 mph - N/A   Overcast
11:58 PM 28.6 °F - 28.6 °F 100% 30.16 in 10.0 mi NNW 2.3 mph - N/A   Overcast